#timestamp,LO_Frequency,Hit,StdDev 
1685512815.4,286046992.4,P
1685512835.3,286046992.6,P
1685512855.1,286046990.9,P
1685512875.8,286046988.1,Y
1685512895.7,286046991.4,P
1685512915.5,286046990.3,P
1685512935.4,286046995.3,P
1685512955.2,286046997.7,N
1685512975.0,286046998.1,N
1685512975.9,286046998.1,N
1685512995.8,286047000.6,N
1685513015.6,286046999.6,N
1685513035.4,286046995.3,N
1685513055.3,286046992.3,N
1685513075.1,286046991.6,N
1685513095.9,286046988.0,Y
1685513115.7,286046991.5,P
1685513135.6,286046989.2,P
1685513155.4,286046988.9,P
1685513175.2,286046985.8,Y
1685513195.1,286046994.8,P
1685513196.0,286046994.8,N
1685513215.8,286046994.4,P
1685513235.6,286046990.2,Y
1685513255.5,286046999.3,P
1685513275.3,286046995.5,N
1685513295.2,286046992.5,P
1685513315.9,286046989.6,Y
1685513335.7,286046986.9,P
1685513355.6,286046986.3,P
1685513375.4,286046985.9,P
1685513395.3,286046982.3,Y
1685513415.1,286046992.8,P
1685513416.0,286046992.8,P
1685513435.8,286046991.4,P
1685513455.7,286046993.7,Y
1685513475.5,286047004.8,P
1685513495.3,286047007.6,N
1685513515.2,286046997.2,N
1685513535.0,286046989.0,N
1685513535.9,286046989.0,N
1685513555.8,286046992.4,N
1685513575.6,286046993.1,N
1685513595.4,286046984.0,N
1685513615.3,286046981.6,N
1685513635.1,286046981.5,N
1685513655.8,286046986.2,N
1685513675.7,286046993.7,N
1685513695.5,286047001.1,N
1685513715.3,286047008.5,N
1685513735.2,286047011.6,N
1685513755.0,286047010.8,N
1685513755.9,286047010.8,N
1685513775.8,286047002.5,N
1685513795.6,286046996.5,N
1685513815.4,286046991.3,N
1685513835.3,286046982.2,N
1685513855.1,286046976.6,N
1685513875.9,286046969.3,N
1685513895.7,286046963.0,Y
1685513915.5,286046965.6,P
1685513935.4,286046958.4,N
1685513955.2,286046957.3,N
1685513975.1,286046957.3,N
1685513976.0,286046957.3,Y
1685513995.8,286046989.1,P
1685514015.6,286046990.9,N
1685514035.5,286046990.0,N
1685514055.3,286046978.9,N
1685514075.2,286046972.7,N
1685514095.0,286046971.7,Y
1685514095.9,286046971.7,P
1685514115.7,286046993.2,N
1685514135.6,286046989.3,N
1685514155.4,286046984.1,N
1685514175.3,286046984.3,N
1685514195.1,286046985.8,N
1685514215.9,286046980.9,Y
1685514235.7,286046996.3,P
1685514255.5,286046989.6,N
1685514275.4,286046986.8,N
1685514295.2,286046978.0,Y
1685514315.1,286046985.8,P
1685514316.0,286046985.8,P
1685514335.8,286046989.2,P
1685514355.6,286046989.0,Y
1685514375.5,286047004.2,P
1685514395.3,286047004.7,N
1685514415.1,286047007.8,N
1685514435.9,286047004.5,N
1685514455.7,286046998.3,N
1685514475.6,286046994.7,N
1685514495.4,286046992.2,N
1685514515.2,286046987.5,N
1685514535.1,286046984.2,N
1685514536.0,286046984.2,N
1685514555.8,286046985.0,N
1685514575.7,286046986.7,N
1685514595.5,286046986.5,N
1685514615.4,286046986.4,N
1685514635.2,286046985.4,N
1685514655.0,286046981.0,N
1685514655.9,286046981.0,N
1685514675.8,286046971.4,Y
1685514695.6,286046974.9,P
1685514715.4,286046967.3,P
1685514735.3,286046962.3,P
1685514755.1,286046961.2,Y
1685514775.9,286046985.1,P
1685514795.7,286046983.5,N
1685514815.5,286046983.6,P
1685514835.4,286046978.2,Y
1685514855.2,286046994.3,P
1685514875.0,286046998.8,N
1685514876.0,286046998.8,N
1685514895.8,286046996.6,N
1685514915.6,286046994.1,N
1685514935.5,286046991.6,N
1685514955.3,286046988.7,N
1685514975.1,286046990.9,N
1685514995.9,286046994.0,N
1685515015.7,286047000.3,N
1685515035.6,286046998.8,N
1685515055.4,286046995.4,N
1685515075.2,286046997.1,N
1685515095.1,286046994.1,N
1685515096.0,286046994.1,N
1685515115.8,286046990.2,N
1685515135.6,286046989.0,N
1685515155.5,286046985.3,Y
1685515175.3,286046990.8,P
1685515195.2,286046987.0,P
1685515215.9,286046985.5,P
1685515235.7,286046982.2,Y
1685515255.6,286046991.4,P
1685515275.4,286046983.0,P
1685515295.3,286046977.2,P
1685515315.1,286046971.5,Y
1685515316.0,286046971.5,P
1685515335.8,286046991.6,N
1685515385.7,286047006.5,E
1685515395.6,286047005.6,N
1685515415.5,286047000.8,P
1685515435.3,286046997.1,N
1685515455.1,286046991.8,N
1685515475.9,286046986.4,N
1685515495.7,286046980.1,N
1685515515.5,286046977.2,N
1685515535.4,286046974.9,N
1685515555.2,286046971.5,N
1685515575.1,286046970.4,N
1685515576.0,286046970.4,N
1685515595.8,286046970.0,N
1685515615.6,286046965.1,N
1685515635.5,286046963.5,N
1685515655.3,286046964.3,N
1685515675.1,286046960.3,N
1685515695.9,286046962.3,N
1685515715.7,286046962.2,N
1685515735.6,286046963.2,N
1685515755.4,286046960.8,N
1685515775.2,286046959.4,N
1685515795.1,286046959.9,N
1685515796.0,286046959.9,N
1685515815.8,286046965.1,N
1685515835.6,286046960.3,N
1685515855.5,286046956.0,Y
1685515875.3,286046977.7,P
1685515895.2,286046977.3,P
1685515915.9,286046979.7,P
1685515935.7,286046980.9,Y
1685515955.6,286047005.4,P
1685515975.4,286047006.0,N
1685515995.3,286047001.6,N
1685516015.1,286047000.1,N
1685516016.0,286047000.1,N
1685516035.8,286047001.4,N
1685516055.7,286047003.4,N
1685516075.5,286047008.4,N
1685516095.3,286047009.2,N
1685516115.2,286047008.1,N
1685516135.0,286047011.8,N
1685516135.9,286047011.8,N
1685516155.8,286047014.6,N
1685516175.6,286047015.0,N
1685516195.4,286047006.8,N
1685516215.3,286047005.6,N
1685516235.1,286047006.8,N
1685516255.8,286047003.9,N
1685516275.7,286047001.8,N
1685516295.5,286047000.3,N
1685516315.4,286046997.9,N
1685516335.2,286046992.4,N
1685516355.0,286046988.7,N
1685516355.9,286046988.7,N
1685516375.8,286046986.7,N
1685516395.6,286046985.6,N
